Aérodrome :
LOGIN :

S'inscrire | Disclaimer

   EN    FR    IT 

 










Légende :    VFR   VFR Marginal   IFR   IFR Intensif   IFR Très Intensif
Visi : 
Plafond : 
>= 8 km
>= 3000ft
5 à 8 km
1000 à 3000 ft
1500m à 5 km
500 à 1000 ft
800 à 1500m
200 à 500 ft
< 800m
< 200 ft
Symboles :   Orages  Brouillard  Fortes neiges  Fortes précipitations  Vent > 20 kt
SIGMETs :   Divers  Orages  Givrage  Turbulence  Onde Orograph.  Cendres Volcan.







- Altitude de l'aérodrome : 485 ft
- Code IATA : QSA


LELL - Sabadell

DERNIER METAR :
  • 220100Z AUTO VRB01KT 3100 BR NSC 06/06 Q1030

METARs EXPIRÉS :
  • 220030Z AUTO 00000KT 2900 BR NSC 06/06 Q1030
  • 220000Z AUTO 26002KT 3300 BR NSC 07/06 Q1030
  • 212330Z AUTO 00000KT 3600 BR NSC 08/07 Q1030
  • 212300Z AUTO 28002KT 4200 BR NSC 09/08 Q1030
  • 212230Z AUTO VRB02KT 4800 BR NSC 08/08 Q1030

TAF TAF LELL
Valide du 21 à 15h jusqu'au 22 à 15h UTC


211400Z 2115/2215 VRB04KT CAVOK TX19/2213Z TN05/2206Z
BECMG 2210/2212 25008KT
Pas de NOTAMs connus pour ce terrain.



MET'MAP, la Météo Aéronautique d'un coup d'oeil ! - Copyright ORBIFLY Décembre 2007 - Disclaimer

ORBIFLY MET'MAP TEAM :

Programmation & Développement : Alexandra Zaïnal
Conception & Développement : Baudouin d'Aumeries
Co-Programmation & Développement : Marc-Olivier Méhu
Soutien technique & logistique : Manuel Goepfert

Contact : metmap@orbifly.com




SOURCES & CREDITS :

   NOAA